Location: Gollag?dem
(16.8053°N, 80.8024°E)
Time: 16:40:37
(UTC+00:00)

Lacrosse 5 rocket - Pass Details

Date: 13 August 2020
Orbit: 464 x 632 km, 57.0° (Epoch: 17 September)

Event Time Altitude Azimuth Distance (km) Brightness Sun altitude
Exits shadow 23:22:14 15° 290° (WNW) 1,660 3.3 -14.1°
Maximum altitude 23:23:23 16° 308° (NW) 1,600 3.4 -13.8°
Drops below altitude 10° 23:26:11 10° 347° (NNW) 1,980 4.2 -13.2°
Sets 23:29:19 0° 9° (N) 2,903 5.4 -12.5°
